Location: Norwich
(42.5310°N, 75.5240°W)
Time: 22:49:52
(UTC-04:00)

Hubble Space Telescope - Visible Passes

Search period start: 22 March 2019 00:00
Search period end: 01 April 2019 00:00
Orbit: 537 x 540 km, 28.5° (Epoch: 22 March)

Date Brightness Start Highest point End Pass type
(mag) Time Alt. Az. Time Alt. Az. Time Alt. Az.
26 Mar 3.1 20:43:25 10° S 20:43:52 10° S 20:44:07 10° SSE visible
27 Mar 3.1 20:32:10 10° S 20:33:14 11° S 20:34:18 10° SSE visible
28 Mar 3.1 20:21:19 10° SSW 20:22:37 11° S 20:23:54 10° SSE visible
29 Mar 3.1 20:10:36 10° SSW 20:11:59 11° S 20:13:21 10° SSE visible
30 Mar 3.1 20:00:01 10° SSW 20:01:21 11° S 20:02:41 10° SSE visible
